This demonstration page uses our WeatherBlox Daily Observations layout. Learn more.

Left ArrowRight Arrow

Hourly Observations for September 16, 2021

Temp ( °F °C ) Dew Point ( °F °C ) Humidity (%) Winds ( mph kmh ) Pressure ( in mb ) Visibility ( mi km ) Precip ( " mm )
12:15 am 00:15 Clear 70 21 61 16 73 73 S 10 17 29.80 1009 10 16 N/A
12:35 am 00:35 Clear 69 20.8 61 16 74 74 S 9 15 29.80 1009 10 16 N/A
12:55 am 00:55 Clear 69 20.6 61 16 75 75 S 9 15 29.80 1009 10 16 N/A
1:15 am 01:15 Clear 69 20.5 61 16 76 76 S 8 13 29.80 1009 10 16 N/A
1:35 am 01:35 Clear 68 20.1 61 16 77 77 S 9 15 29.81 1009 10 16 N/A
1:55 am 01:55 Clear 68 20 61 16 78 78 S 10 17 29.81 1009 10 16 N/A
2:15 am 02:15 Clear 68 20 61 16.1 78 78 S 12 19 29.81 1009 10 16 N/A
2:35 am 02:35 Clear 68 20 61 16.2 79 79 S 9 15 29.81 1009 10 16 N/A
2:55 am 02:55 Clear 67 19.6 61 16.2 81 81 S 9 15 29.81 1010 10 16 N/A
3:15 am 03:15 Clear 67 19.5 61 16.2 81 81 S 9 15 29.80 1009 10 16 N/A
3:35 am 03:35 Clear 67 19.7 62 16.5 82 82 S 10 17 29.80 1009 10 16 N/A
3:55 am 03:55 Clear 68 20 62 16.6 81 81 S 12 19 29.80 1009 10 16 N/A
4:15 am 04:15 Clear 68 20 62 16.7 81 81 S 12 19 29.79 1009 10 16 N/A
4:35 am 04:35 Clear 67 19.6 63 17 85 85 S 9 15 29.79 1009 10 16 N/A
4:55 am 04:55 Clear 67 19.7 63 17 85 85 S 12 19 29.79 1009 10 16 N/A
5:15 am 05:15 Clear 67 19.7 63 17 85 85 S 10 17 29.79 1009 10 16 N/A
5:35 am 05:35 Clear 67 19.5 63 17 86 86 S 10 17 29.78 1009 10 16 N/A
5:55 am 05:55 Clear 67 19.5 63 17.1 86 86 S 12 19 29.78 1009 10 16 N/A
6:15 am 06:15 Clear 67 19.3 63 17.1 87 87 S 9 15 29.78 1009 10 16 N/A
6:35 am 06:35 Clear 66 19 63 17.1 89 89 S 9 15 29.80 1009 10 16 N/A
6:55 am 06:55 Clear 65 18.6 63 17 90 90 S 9 15 29.80 1009 10 16 N/A
7:15 am 07:15 Clear 65 18.5 63 17.1 92 92 S 8 13 29.80 1009 10 16 N/A
7:35 am 07:35 Sunny 65 18.3 63 17 92 92 S 6 9 29.80 1009 10 16 N/A
7:55 am 07:55 Sunny 65 18.5 63 17.1 92 92 S 10 17 29.81 1009 10 16 N/A
8:15 am 08:15 Sunny 66 18.9 63 17.3 90 90 S 9 15 29.81 1009 10 16 N/A
8:35 am 08:35 Sunny 67 19.5 64 17.5 88 88 S 9 15 29.80 1009 10 16 N/A
8:55 am 08:55 Sunny 69 20.3 64 17.6 85 85 S 12 19 29.79 1009 10 16 N/A
9:15 am 09:15 Sunny 71 21.5 64 17.7 79 79 S 15 24 29.78 1008 10 16 N/A
9:35 am 09:35 Sunny 73 22.6 64 17.5 73 73 S 15 24 29.77 1008 10 16 N/A
9:55 am 09:55 Sunny 74 23.5 64 17.5 69 69 S 18 30 29.76 1008 10 16 N/A
10:15 am 10:15 Sunny 75 24.1 64 17.5 67 67 S 15 24 29.75 1008 10 16 N/A
10:35 am 10:35 Sunny 77 25.1 64 17.5 63 63 S 17 28 29.75 1007 10 16 N/A
10:55 am 10:55 Sunny 79 26.1 64 17.5 59 59 S 16 26 29.73 1007 10 16 N/A
11:15 am 11:15 Sunny 80 26.9 64 17.6 57 57 S 17 28 29.72 1007 10 16 N/A
11:35 am 11:35 Sunny 82 27.6 64 17.5 54 54 S 13 20 29.72 1006 10 16 N/A
11:55 am 11:55 Sunny 83 28.5 63 17.2 50 50 SSW 17 28 29.71 1006 10 16 N/A
12:15 pm 12:15 Sunny 85 29.5 63 17.1 47 47 S 16 26 29.69 1005 10 16 N/A
12:35 pm 12:35 Sunny 86 30.1 63 17.1 46 46 S 22 35 29.68 1005 10 16 N/A
12:55 pm 12:55 Sunny 87 30.7 62 16.8 43 43 S 21 33 29.67 1005 10 16 N/A
1:15 pm 13:15 Sunny 88 31 62 16.5 42 42 S 20 31 29.66 1004 10 16 N/A
1:35 pm 13:35 Sunny 89 31.6 62 16.4 40 40 S 21 33 29.66 1004 10 16 N/A
1:55 pm 13:55 Sunny 90 32.2 61 16.2 38 38 SSW 18 30 29.64 1004 10 16 N/A
2:15 pm 14:15 Sunny 90 32.4 60 15.7 37 37 S 20 31 29.64 1004 10 16 N/A
2:35 pm 14:35 Sunny 91 32.7 61 16 37 37 S 21 33 29.63 1003 10 16 N/A
2:55 pm 14:55 Sunny 91 33 60 15.6 35 35 S 17 28 29.62 1003 10 16 N/A
3:15 pm 15:15 Sunny 91 33 59 15.1 34 34 S 20 31 29.61 1003 10 16 N/A
3:35 pm 15:35 Sunny 92 33.2 59 15.1 34 34 SSW 21 33 29.59 1002 10 16 N/A
3:55 pm 15:55 Sunny 92 33.5 59 14.8 32 32 S 23 37 29.59 1002 10 16 N/A
4:15 pm 16:15 Sunny 92 33.3 58 14.4 32 32 S 21 33 29.58 1002 10 16 N/A
4:35 pm 16:35 Sunny 92 33.5 58 14.4 32 32 S 23 37 29.59 1002 10 16 N/A
4:55 pm 16:55 Sunny 92 33.3 58 14.5 32 32 S 24 39 29.58 1002 10 16 N/A
5:15 pm 17:15 Sunny 92 33.2 59 15.1 34 34 S 18 30 29.58 1002 10 16 N/A
5:35 pm 17:35 Sunny 91 33 59 14.8 33 33 S 14 22 29.59 1002 10 16 N/A
5:55 pm 17:55 Sunny 91 32.5 60 15.6 36 36 S 18 30 29.59 1002 10 16 N/A
6:15 pm 18:15 Sunny 89 31.9 60 15.6 37 37 S 18 30 29.59 1002 10 16 N/A
6:35 pm 18:35 Sunny 88 31.1 62 16.4 41 41 SSE 14 22 29.61 1003 10 16 N/A
6:55 pm 18:55 Sunny 87 30.3 62 16.5 43 43 SSE 15 24 29.62 1003 10 16 N/A
7:15 pm 19:15 Sunny 85 29.5 62 16.8 46 46 SSE 15 24 29.63 1003 10 16 N/A
7:35 pm 19:35 Sunny 83 28.6 63 17 49 49 SSE 14 22 29.64 1004 10 16 N/A
7:55 pm 19:55 Clear 82 27.9 62 16.9 51 51 SSE 13 20 29.64 1004 10 16 N/A
8:15 pm 20:15 Clear 81 27.2 62 16.6 52 52 SSE 15 24 29.65 1004 10 16 N/A
8:35 pm 20:35 Clear 80 26.8 62 16.5 53 53 S 15 24 29.66 1005 10 16 N/A
8:55 pm 20:55 Clear 80 26.5 62 16.5 54 54 SSE 12 19 29.69 1005 10 16 N/A
9:15 pm 21:15 Clear 79 26 62 16.4 56 56 SSE 14 22 29.70 1006 10 16 N/A
9:35 pm 21:35 Clear 78 25.6 61 16.1 56 56 SSE 14 22 29.70 1006 10 16 N/A
9:55 pm 21:55 Clear 78 25.5 60 15.5 54 54 S 14 22 29.71 1006 10 16 N/A
10:15 pm 22:15 Clear 77 25.2 59 15.1 54 54 S 15 24 29.71 1006 10 16 N/A
10:35 pm 22:35 Clear 77 25 59 15 54 54 S 14 22 29.71 1006 10 16 N/A
10:55 pm 22:55 Clear 76 24.6 59 15 55 55 S 14 22 29.71 1006 10 16 N/A
11:15 pm 23:15 Clear 75 24.1 60 15.3 58 58 S 12 19 29.72 1007 10 16 N/A
11:35 pm 23:35 Clear 74 23.6 60 15.5 61 61 S 8 13 29.74 1007 10 16 N/A
11:55 pm 23:55 Clear 74 23.5 60 15.6 61 61 S 6 9 29.76 1008 10 16 N/A

Powered by AerisWeather